Theta_e
314 321 326 323 320 318 315 312 311 314 313 313 316 316 315 315 314 313 313 313 310 312 313 314 314 312 312 312 311 312 311 311 312 312 312 312 313 314 313 310 308 308 308 307 305 305 305 304 305 305 305 305 304 304 304 305 309 312 316 319 320 322 323 325 325 325 325 324 324 323 323 322 322 322 322 322 322 322 321 321 321 321 318 316 319 322
318 321 324 322 319 316 314 312 311 313 313 314 316 317 316 314 315 313 312 313 310 312 314 314 315 312 312 312 310 311 311 311 312 311 312 313 312 311 309 308 307 307 308 307 306 305 304 304 304 303 304 304 304 305 305 306 308 311 315 318 319 321 322 324 325 325 325 325 324 323 323 322 322 322 322 322 322 322 321 320 320 319 319 317 319 322
320 324 325 319 314 314 315 313 312 312 314 316 316 317 317 315 316 315 314 314 313 313 313 314 314 312 311 311 310 311 311 311 312 312 313 312 310 308 307 307 307 306 306 306 306 304 302 302 302 302 303 304 304 304 305 305 306 309 313 316 319 320 321 323 325 325 324 324 324 324 323 323 322 321 321 321 321 321 321 320 320 319 319 319 319 321
317 323 322 314 312 313 315 318 315 312 315 317 318 317 317 316 315 315 315 314 313 312 312 313 314 313 311 310 310 310 310 311 312 313 313 310 308 308 308 307 307 306 305 304 303 303 301 300 301 301 302 303 303 303 304 304 305 307 310 313 316 319 320 322 324 325 325 324 324 324 323 323 322 322 321 321 321 321 321 320 320 320 320 320 320 320
315 315 313 313 317 314 314 319 316 314 316 319 319 317 317 317 316 315 314 312 312 311 311 314 314 312 310 309 308 308 309 310 310 310 311 309 308 308 308 308 307 306 305 303 302 301 300 300 300 300 301 302 302 302 303 303 304 305 306 308 312 317 319 321 323 324 324 324 324 323 323 323 322 322 321 320 320 320 321 321 320 320 320 320 320 320
314 311 309 314 319 315 313 316 315 314 316 320 322 319 318 318 318 317 314 312 312 310 311 313 311 310 308 307 307 308 308 308 309 310 309 308 309 309 308 308 307 305 304 303 300 299 299 299 299 299 300 301 301 301 302 302 303 303 304 305 308 313 317 319 321 324 324 324 324 323 323 322 322 321 320 320 320 320 320 321 320 319 320 320 319 319
312 312 312 313 315 314 315 317 316 314 314 318 319 317 317 316 316 316 314 313 312 309 309 310 310 310 309 308 308 309 309 310 310 311 309 308 309 309 309 308 305 303 302 300 298 299 299 299 299 299 299 300 300 301 301 302 302 302 303 304 305 309 313 317 319 322 324 324 323 323 323 322 322 321 320 320 320 320 320 320 320 319 319 319 319 318
314 314 316 316 314 314 315 315 315 313 314 319 318 314 313 313 313 314 313 312 311 309 309 309 311 312 311 309 310 312 312 311 311 310 309 308 308 308 306 304 301 299 299 299 298 299 299 299 299 299 300 300 301 301 301 301 301 302 302 303 304 306 309 313 317 320 323 324 323 323 323 322 322 322 321 321 320 320 320 320 319 319 318 319 319 318
313 313 315 315 312 312 314 314 314 313 314 320 318 312 311 311 312 312 312 311 310 310 311 310 311 312 311 310 309 312 311 311 310 308 308 308 306 306 303 299 297 298 298 298 299 299 299 299 299 300 301 301 301 301 301 301 301 302 302 303 303 305 307 310 313 318 321 324 324 323 323 323 322 322 321 321 320 320 319 319 319 319 318 318 318 318
312 312 311 310 309 313 314 312 314 315 313 316 314 310 311 310 310 311 311 311 311 311 311 309 310 312 312 309 308 310 310 310 308 305 307 305 304 304 300 297 297 298 299 299 298 298 298 298 299 301 301 301 301 301 301 301 302 302 302 303 303 304 306 308 311 315 319 322 324 323 323 323 322 322 321 321 320 319 319 319 319 318 318 317 317 317
312 311 309 308 309 312 312 311 316 315 309 311 313 310 311 311 312 313 312 312 313 312 311 310 311 311 310 308 307 308 307 307 303 301 302 300 300 301 297 297 298 298 299 298 298 297 297 297 300 302 301 300 300 300 300 301 302 303 303 303 303 304 305 307 310 313 317 321 323 323 323 323 322 322 321 320 320 319 318 318 318 318 318 317 317 317
316 314 310 310 311 311 310 310 312 311 306 309 312 311 312 313 313 312 312 313 312 310 308 308 308 306 304 303 304 306 305 305 301 297 297 297 297 298 297 297 299 298 298 298 297 297 296 297 299 301 300 299 299 299 299 300 301 303 303 303 304 304 305 307 309 312 315 319 322 323 323 323 323 322 321 321 320 319 318 318 318 317 317 317 317 316
320 321 312 309 310 309 311 310 310 311 307 306 310 312 311 311 308 306 307 309 308 307 304 304 304 302 302 302 304 306 304 301 298 295 295 295 296 297 297 298 299 298 298 297 296 296 295 296 299 301 300 299 299 299 299 299 300 302 303 303 303 304 305 306 308 311 313 317 321 322 323 323 323 322 322 321 320 319 318 318 317 317 317 316 316 316
316 318 312 309 311 309 311 311 309 310 305 302 308 312 308 307 307 306 306 304 303 303 302 301 303 304 304 305 305 304 300 296 295 295 294 295 296 296 297 298 298 298 297 296 296 295 295 295 298 300 299 299 299 298 298 298 299 301 302 303 303 304 305 306 308 310 312 315 318 321 322 322 322 322 322 321 321 320 319 318 318 317 317 316 316 316
309 310 310 308 310 311 309 308 308 306 301 302 308 309 308 308 307 305 303 301 300 301 302 302 305 305 304 304 302 298 296 295 294 294 294 295 296 296 297 297 297 297 296 296 295 295 295 295 297 300 299 299 298 298 298 298 298 300 302 303 303 303 304 305 307 309 312 314 316 319 321 322 322 321 321 321 321 320 319 319 318 317 317 317 317 316
309 309 312 309 309 311 305 304 307 303 300 305 308 308 310 308 305 303 301 301 301 302 304 303 303 303 301 301 299 295 294 294 294 294 294 295 296 295 296 297 296 296 296 296 295 294 294 294 296 299 299 298 298 298 298 297 298 299 301 302 303 303 304 305 306 308 311 313 315 317 320 322 322 321 321 321 320 320 319 319 318 317 317 316 316 317
310 311 311 308 307 305 300 299 302 301 301 307 306 305 308 305 301 301 300 301 302 301 301 300 299 298 297 298 297 294 294 294 293 294 294 294 295 295 296 296 296 296 296 295 295 294 294 294 295 298 298 298 298 298 297 297 297 299 301 302 302 302 303 304 306 307 309 312 314 316 318 321 321 320 320 321 320 320 319 319 318 318 317 316 316 316
308 307 305 306 307 303 300 301 302 302 302 303 302 300 302 301 299 300 299 298 299 298 297 296 296 295 294 296 295 293 293 293 293 294 294 294 294 295 295 296 296 296 296 295 295 294 294 293 294 296 298 298 297 297 297 297 297 298 300 301 302 301 301 303 305 306 308 310 313 315 316 319 321 319 319 319 320 320 319 319 318 318 317 316 316 315
307 305 303 305 307 302 301 301 302 304 302 299 300 300 299 299 299 298 297 295 295 295 294 294 294 293 293 294 293 293 293 293 294 293 293 293 294 295 295 295 296 296 296 295 295 294 294 293 293 295 296 297 297 297 297 296 297 298 299 301 301 301 300 301 302 305 307 308 310 313 315 317 319 319 318 318 318 319 319 319 318 318 317 316 316 315
306 306 304 303 302 299 298 301 300 301 300 298 299 299 298 299 298 295 294 294 294 294 294 293 293 293 293 293 293 293 293 293 293 292 293 294 294 294 293 294 296 296 296 295 295 294 294 293 292 293 295 296 296 297 297 296 296 297 298 300 301 300 299 299 300 302 305 307 309 312 314 316 318 318 318 317 317 318 318 318 318 318 317 317 316 315
307 307 304 299 298 297 297 302 301 297 296 296 295 295 295 295 295 294 294 294 294 293 293 293 293 293 293 293 293 293 293 292 292 292 293 293 293 292 292 294 296 296 296 295 295 294 293 293 292 293 294 295 296 296 296 296 296 297 298 299 300 300 299 299 299 300 303 306 308 310 312 314 316 317 317 317 317 317 317 317 317 317 317 316 315 315
307 305 302 298 296 296 296 300 300 296 296 297 295 293 294 293 294 294 294 293 293 293 293 293 293 293 293 293 293 293 292 292 292 293 293 292 291 291 292 293 295 296 296 295 295 294 293 292 292 292 293 294 295 296 296 296 296 296 297 298 299 300 299 299 299 300 301 303 306 309 310 311 313 315 316 316 316 316 316 316 316 316 316 316 315 315
303 302 301 298 296 296 296 297 297 296 297 297 294 293 293 293 293 294 293 293 293 293 293 294 294 294 294 295 293 292 292 292 293 293 291 291 291 291 291 293 295 296 295 295 294 293 292 292 291 291 292 293 294 295 296 296 296 296 297 298 299 299 299 299 298 299 300 301 303 306 309 310 311 313 314 315 316 316 316 315 315 316 315 315 315 314
300 301 300 297 294 294 294 295 295 295 295 294 293 293 293 293 293 294 293 293 293 293 292 293 293 293 294 294 293 292 293 292 292 291 290 290 290 291 292 293 294 295 294 294 294 292 292 291 291 291 292 292 294 295 295 295 295 296 296 297 298 299 298 298 298 299 300 300 300 302 306 309 311 311 313 314 314 316 316 316 315 315 315 314 314 313
299 300 299 295 292 291 292 292 292 293 293 293 292 293 293 293 293 293 293 293 293 292 292 292 292 292 292 293 293 292 292 291 290 290 290 290 290 291 292 293 293 293 293 294 293 292 291 291 291 292 292 292 293 294 295 295 295 295 295 296 297 298 298 298 298 299 300 300 299 299 301 306 310 311 312 313 313 314 315 315 315 314 314 314 313 313
299 299 298 295 292 291 291 291 291 292 293 293 293 293 293 293 293 293 293 293 292 292 292 292 292 291 292 292 291 290 290 289 289 289 290 290 290 291 292 292 292 292 293 293 293 292 291 291 291 292 291 292 292 294 295 295 294 294 295 295 296 297 298 298 298 298 299 299 298 298 299 302 307 310 311 311 312 312 313 314 314 313 313 313 312 312
299 298 296 294 293 292 292 291 292 293 293 293 293 293 293 293 293 293 292 292 292 291 291 292 292 291 291 291 290 289 289 289 289 289 290 290 290 291 291 291 292 292 292 293 292 292 291 291 291 291 291 291 292 294 295 294 294 294 294 295 296 297 297 297 297 298 299 298 298 298 298 299 303 307 310 311 311 312 312 312 313 313 313 312 311 311
297 296 295 294 293 293 292 292 292 293 293 293 293 293 292 293 293 293 292 291 291 291 291 291 291 291 290 289 289 289 289 289 289 289 289 290 290 290 290 291 292 292 292 292 292 292 291 291 291 291 291 291 292 293 294 294 293 293 293 294 295 296 297 297 297 297 298 298 298 298 298 298 299 303 308 310 310 311 311 312 312 312 312 312 311 310
295 294 295 294 293 293 293 293 293 293 293 293 293 292 292 292 292 292 292 291 291 291 291 290 290 290 289 288 289 289 289 289 289 289 289 290 290 290 290 291 291 291 291 292 292 291 291 291 291 291 291 292 292 293 293 293 293 293 293 294 294 295 296 296 297 297 297 297 297 297 297 298 298 300 305 309 309 310 311 311 311 311 311 311 311 310
295 295 294 293 294 293 293 293 293 293 293 292 292 292 292 291 291 291 291 290 290 290 290 289 289 288 289 289 289 289 289 289 289 289 289 289 290 290 290 290 291 291 291 291 291 291 291 291 291 291 291 292 293 293 293 292 292 293 293 293 293 294 295 296 297 297 297 296 297 297 297 297 298 298 302 306 308 309 310 310 310 310 310 310 309 309
296 295 294 294 294 293 292 293 293 292 292 292 291 291 291 290 290 290 290 289 289 289 288 288 288 288 289 289 289 289 289 289 289 289 289 289 290 290 290 290 290 290 290 291 291 291 291 291 291 291 291 292 292 292 292 292 292 293 293 293 293 293 294 296 296 296 296 296 296 296 297 297 297 298 300 304 307 308 308 309 309 308 308 308 308 307
295 295 294 294 294 293 292 292 292 292 291 291 291 290 290 290 289 289 289 289 289 289 288 288 288 288 288 289 289 289 289 289 289 289 289 290 290 290 290 290 290 290 290 291 291 291 291 291 291 291 291 292 292 292 292 292 292 292 292 292 292 292 293 295 295 295 295 295 295 296 296 297 297 297 299 303 306 307 307 308 308 307 307 306 306 306
295 295 295 295 294 293 292 291 291 291 291 292 292 291 290 289 289 288 289 289 289 289 288 288 288 288 288 289 289 289 289 289 289 289 289 290 290 290 290 290 290 290 290 290 290 290 290 290 290 290 291 291 291 291 291 292 292 291 292 291 291 292 293 294 294 294 294 294 295 295 296 297 297 297 298 301 305 306 306 306 306 306 305 304 305 305
294 294 295 295 293 293 292 291 291 291 292 293 293 290 289 289 288 288 288 288 289 288 288 288 288 288 289 289 289 289 289 290 290 290 289 289 289 289 290 290 290 289 288 286 285 284 285 286 287 288 289 289 290 290 291 291 290 289 290 290 291 292 293 293 293 293 293 294 294 295 296 296 297 297 298 301 303 304 304 304 304 304 304 303 303 303
293 294 294 294 293 292 292 292 292 292 293 292 291 290 290 289 289 289 288 288 288 288 288 288 288 288 289 289 289 290 290 290 289 288 288 288 290 290 289 287 285 284 283 282 281 281 281 283 284 285 286 286 288 288 288 288 288 288 290 291 291 291 291 291 291 292 293 294 294 295 296 296 297 297 298 300 302 302 303 303 303 303 302 302 301 302
293 293 293 292 292 291 292 293 292 291 291 290 290 290 290 289 289 289 289 289 289 288 288 288 288 289 289 289 290 290 289 288 286 286 286 287 288 287 284 281 280 279 279 279 278 279 280 281 282 283 283 284 285 286 286 287 287 288 288 288 288 288 289 290 291 292 293 293 294 295 296 296 297 296 297 299 301 301 301 302 302 302 301 300 300 301
292 293 293 292 292 292 292 292 291 290 290 290 289 289 289 289 289 289 289 289 288 288 289 288 289 289 289 290 289 288 286 284 283 284 285 285 284 281 279 277 277 277 277 277 276 277 277 278 278 279 280 281 282 283 284 284 285 285 285 286 287 289 290 291 292 292 292 293 294 295 296 296 297 296 297 299 299 300 300 301 301 301 300 299 299 299
292 293 293 292 292 293 292 291 290 290 290 290 289 290 290 290 289 289 289 289 289 289 289 289 289 289 289 289 287 284 283 282 282 283 283 282 279 278 276 276 275 275 275 275 275 275 275 275 276 277 278 278 279 280 281 281 282 284 285 286 288 289 290 291 291 291 292 293 294 295 295 296 297 297 297 298 299 299 300 300 300 300 299 299 299 299
291 292 292 291 292 292 291 290 290 290 290 290 290 290 290 290 289 289 289 289 290 289 290 289 289 289 288 285 283 282 281 281 281 281 280 279 277 276 275 274 274 274 274 274 274 274 274 274 275 276 276 277 278 278 279 280 281 282 284 285 287 288 290 290 290 290 292 294 295 295 295 296 297 297 297 297 298 299 300 300 300 299 299 299 299 299
289 290 291 290 290 290 290 290 290 289 290 290 290 289 289 290 290 290 289 290 290 289 290 289 288 287 284 282 281 280 279 279 279 279 277 276 275 274 274 273 273 272 272 272 272 273 273 274 274 275 276 276 277 278 278 280 280 281 282 284 285 287 288 288 289 290 293 293 293 294 294 295 297 297 297 297 298 299 300 300 299 299 298 298 299 299
290 290 290 289 289 290 290 290 289 289 290 290 290 290 289 289 290 290 290 290 289 289 289 288 286 283 281 280 279 279 278 278 277 276 275 274 274 273 272 272 272 272 272 272 272 273 273 274 274 275 275 276 277 277 278 279 280 280 281 282 284 285 286 287 288 291 292 292 292 293 294 295 296 297 297 298 298 298 299 299 299 299 298 298 298 298
292 292 291 290 290 290 290 290 289 290 290 290 290 290 290 290 290 290 290 290 289 289 287 285 282 280 279 278 277 277 276 276 275 274 273 273 272 272 271 271 271 271 271 272 272 273 273 274 274 275 275 276 276 277 278 279 279 279 280 280 282 284 286 287 288 290 290 290 291 293 294 295 296 297 298 298 298 298 298 299 299 298 298 298 298 298
292 293 292 291 291 290 290 291 290 291 292 291 290 290 290 291 290 290 289 289 288 286 284 281 280 278 277 276 276 275 274 274 273 273 272 271 271 270 270 270 270 271 271 272 272 273 274 274 274 275 275 276 276 277 278 278 279 279 280 280 281 283 284 286 287 287 288 289 291 293 294 295 296 297 297 298 297 297 298 298 298 298 297 297 297 297
291 293 293 292 292 292 292 292 292 291 291 290 290 290 290 290 289 288 287 285 284 283 281 278 277 276 275 274 274 274 273 273 272 271 270 270 269 269 270 270 270 271 272 272 273 274 275 275 275 275 276 276 277 277 278 278 279 280 280 281 282 284 285 285 286 287 288 289 292 293 294 295 296 296 297 297 297 297 297 297 297 297 297 297 297 297
291 291 292 292 291 292 292 291 291 290 290 290 291 290 290 290 288 285 283 282 282 280 278 276 275 275 274 273 273 272 272 271 271 270 269 269 269 269 269 270 270 271 272 272 273 274 275 276 276 275 276 277 277 278 278 279 279 280 281 282 283 284 286 287 288 289 290 291 293 294 294 295 295 296 297 297 296 296 296 297 296 296 296 296 297 297
291 290 290 291 290 290 291 291 290 290 290 291 290 290 290 288 285 282 281 280 279 277 275 274 274 273 273 272 272 271 271 270 269 269 269 269 269 269 269 269 270 271 271 272 273 273 274 275 276 276 276 277 278 279 279 280 280 281 282 284 285 287 288 288 289 290 291 292 293 294 294 294 295 296 296 296 296 296 296 297 296 296 296 296 296 297
291 291 290 290 290 291 291 291 290 290 290 290 289 290 289 285 281 280 279 277 276 274 273 273 272 272 272 271 271 270 270 269 269 268 269 269 268 268 269 269 269 270 270 271 272 273 273 274 275 276 276 277 279 279 280 281 282 282 284 286 288 289 289 290 290 291 292 293 293 294 294 294 295 295 295 295 295 296 296 296 296 296 296 296 296 296
291 291 290 290 290 290 290 290 290 290 290 289 289 289 286 281 279 279 277 275 273 272 272 272 272 271 271 270 270 269 269 268 268 268 268 268 268 268 268 268 269 269 269 270 271 272 272 272 273 274 274 275 276 278 279 280 282 284 286 287 289 290 291 291 292 292 292 293 293 294 294 294 294 295 295 295 295 295 296 296 296 296 296 296 296 296
291 291 291 291 290 290 290 290 290 290 289 289 289 286 281 278 277 277 275 273 272 271 271 271 271 271 270 269 269 268 268 268 268 268 267 267 267 267 268 268 268 268 269 269 270 270 271 270 271 272 272 273 274 275 276 277 279 281 283 284 286 287 288 290 291 292 293 293 293 294 294 294 294 295 295 295 295 295 296 296 296 296 296 296 297 297
291 290 291 291 290 290 290 290 290 289 288 289 288 283 279 277 276 274 273 272 271 271 271 270 270 270 269 269 268 268 268 267 268 267 267 267 266 267 267 268 268 268 268 268 268 269 269 269 269 270 271 272 272 272 273 275 276 278 279 280 281 282 283 286 288 290 292 293 293 294 294 294 294 295 295 295 295 295 295 296 296 297 296 296 296 297
291 290 290 291 290 290 290 290 289 288 287 288 286 281 277 276 274 272 271 271 270 270 270 269 269 268 268 268 268 268 267 267 267 267 267 266 266 266 267 267 267 267 267 267 267 267 267 268 268 269 269 270 270 271 271 272 274 275 276 277 278 279 281 282 285 288 290 291 293 293 294 294 295 295 295 295 295 295 295 295 296 296 297 297 297 297
Wind_Speed
4 5 4 3 4 7 7 2 3 4 3 4 5 5 6 6 11 11 9 8 3 5 8 6 13 22 24 23 20 20 21 19 19 20 16 11 9 8 9 11 11 11 9 9 14 19 21 23 25 26 25 23 23 24 24 25 25 27 28 28 30 32 34 35 35 37 40 39 37 37 37 37 37 40 40 39 39 40 40 41 41 41 42 41 41 42
5 5 5 6 7 9 6 2 4 1 1 3 4 6 7 4 10 12 10 10 3 2 8 8 13 24 26 25 21 18 20 20 16 17 16 13 10 9 11 11 10 8 7 10 13 16 21 23 24 25 25 22 21 23 23 24 25 25 25 28 31 31 33 36 38 36 37 41 42 39 38 38 37 38 40 41 41 41 41 41 41 40 41 42 43 43
6 4 8 8 6 5 4 4 6 2 1 3 4 5 7 4 7 10 9 9 3 1 6 10 11 22 28 26 21 18 16 16 13 13 10 9 10 9 10 9 9 9 9 10 11 13 18 23 25 26 26 25 23 23 24 24 25 24 24 27 29 31 34 36 38 39 37 38 41 42 41 40 37 36 40 41 40 41 41 41 42 41 41 42 43 43
5 6 7 4 2 2 5 4 4 2 1 2 4 4 7 6 5 7 9 12 11 6 4 5 8 15 24 22 17 16 14 10 11 12 7 10 9 7 7 8 10 12 11 12 13 12 15 20 25 26 26 27 26 25 26 26 26 26 25 27 29 32 36 37 37 40 40 37 37 39 39 39 37 34 36 36 37 40 41 40 41 42 42 42 43 44
7 9 3 3 4 1 3 6 4 3 3 3 6 5 7 8 7 8 9 11 15 14 4 2 6 9 16 21 16 13 13 10 10 13 9 9 7 6 8 9 10 11 12 13 15 15 14 16 21 25 27 28 28 27 29 30 29 28 29 29 29 31 35 38 38 39 39 37 35 34 33 33 33 31 31 32 34 38 41 42 42 43 45 44 44 45
8 7 1 3 3 2 1 6 3 0 4 4 4 7 8 9 9 10 11 8 10 15 4 7 6 10 14 23 18 12 15 14 12 11 8 8 7 7 8 8 9 10 11 12 15 16 15 16 20 27 30 30 30 31 32 33 34 32 31 32 30 30 33 37 38 38 39 38 34 32 32 32 29 27 31 37 37 40 44 46 46 45 46 46 45 45
4 4 2 2 5 3 3 5 3 3 1 5 3 4 5 6 8 10 10 6 5 13 10 6 5 11 13 21 17 12 15 15 11 7 8 7 6 6 6 7 8 10 10 12 14 17 19 19 21 24 29 31 31 34 35 34 35 36 35 34 32 30 31 35 38 38 39 40 38 35 33 34 33 27 31 40 41 41 45 45 45 45 45 45 45 45
2 6 6 4 3 2 3 4 3 3 3 4 4 2 5 7 9 9 7 5 5 12 15 5 4 8 12 16 10 7 12 13 8 8 10 10 9 8 8 7 9 10 11 12 14 17 20 20 20 23 28 32 34 36 37 35 35 37 38 37 34 31 30 33 37 38 38 40 41 40 36 33 36 33 31 37 40 40 42 43 43 43 44 45 45 45
1 4 4 4 4 2 3 4 2 4 3 6 6 6 8 7 8 8 5 6 6 8 12 7 3 6 11 11 6 5 10 10 7 9 11 11 12 11 10 11 11 12 13 14 15 17 18 19 23 26 30 34 36 37 36 35 37 38 40 39 36 34 31 31 35 38 39 39 38 40 40 35 35 37 34 34 36 38 38 40 42 42 43 44 45 46
3 4 4 3 4 3 4 4 2 5 2 7 8 8 7 5 6 6 4 5 5 6 12 11 5 5 11 12 5 4 8 6 6 7 7 9 12 11 10 12 13 13 13 14 15 15 16 20 25 27 30 33 35 37 36 36 38 39 40 39 37 36 33 30 33 37 39 41 39 37 40 39 36 36 36 33 31 35 37 38 40 42 42 42 43 45
5 4 1 0 3 4 2 2 3 6 3 5 6 7 8 8 6 4 3 1 1 6 12 10 3 3 12 11 3 4 8 6 5 7 9 13 15 12 11 12 13 14 13 14 15 14 17 22 25 25 28 32 34 37 37 37 39 39 39 39 37 38 36 32 31 35 39 41 42 39 37 37 36 35 36 35 32 33 36 37 38 40 41 42 43 43
7 6 1 2 1 2 3 4 3 5 6 7 5 5 6 6 4 4 3 1 1 9 12 7 5 8 14 10 6 8 8 8 7 9 12 14 13 10 10 10 11 12 12 13 14 13 16 19 21 21 25 30 33 36 37 37 39 39 39 40 38 38 38 34 31 34 38 40 41 42 40 36 34 35 36 36 36 36 36 37 38 39 40 41 41 41
4 5 3 1 0 5 6 5 4 4 7 6 4 4 4 4 5 5 5 2 4 10 14 11 10 10 15 10 7 6 6 8 9 11 14 15 11 9 9 9 9 11 11 12 12 11 13 15 15 15 20 26 28 32 36 37 37 37 39 40 38 38 40 37 32 32 37 41 41 40 42 40 35 36 38 37 36 37 38 38 38 39 39 40 40 40
4 4 3 2 2 5 7 5 4 4 6 5 2 2 3 3 4 6 7 7 7 10 18 16 10 9 11 4 3 3 5 8 12 15 18 17 13 10 8 7 7 8 9 10 10 10 10 12 12 12 18 24 25 29 35 36 36 35 37 40 39 40 42 39 33 32 35 40 42 39 40 43 40 36 37 38 38 38 38 39 41 40 41 42 43 42
3 4 2 2 1 4 6 5 2 3 8 6 0 2 2 3 1 4 6 9 10 11 18 15 6 8 8 2 5 6 9 13 17 21 23 21 16 16 15 14 14 12 11 10 10 11 11 12 13 14 19 23 25 28 31 34 35 35 35 38 40 41 42 42 37 32 33 38 42 41 37 41 45 42 37 36 39 42 41 40 42 42 42 43 45 46
1 5 4 2 3 7 5 1 3 3 7 3 1 3 2 3 3 4 8 11 11 11 13 8 5 9 10 8 7 11 16 21 26 28 27 22 19 20 20 19 19 17 15 14 13 14 15 15 17 18 20 23 26 28 29 32 35 34 33 35 38 42 42 41 39 33 32 35 39 41 38 37 42 47 44 38 35 38 42 42 42 43 44 43 44 47
1 4 3 4 4 8 4 4 3 2 3 2 3 2 3 4 5 3 7 11 8 8 8 6 9 13 11 9 8 16 24 26 26 26 21 16 18 20 18 16 15 14 14 14 13 14 14 15 17 20 21 23 26 28 29 31 33 33 32 32 35 41 43 42 39 35 32 33 36 39 40 38 38 42 45 45 40 35 37 40 41 42 43 43 43 45
1 7 5 2 1 2 1 6 4 2 3 3 4 5 5 3 3 2 4 5 4 7 7 7 14 18 12 6 7 18 24 23 21 19 16 17 21 21 19 17 16 13 12 11 11 12 12 12 16 20 23 24 26 28 29 30 32 32 31 31 32 35 41 42 39 36 34 33 34 36 37 39 41 40 38 42 45 41 37 38 39 39 41 43 43 43
1 7 5 5 4 2 4 5 4 2 5 5 3 6 5 4 3 3 6 6 6 9 8 8 15 18 10 6 12 19 21 19 18 18 19 23 24 20 19 19 18 14 11 10 10 10 11 11 15 21 24 26 27 28 29 30 30 31 32 32 32 34 38 41 40 37 36 35 34 34 35 36 39 41 38 36 38 40 40 40 40 40 40 42 43 42
1 3 5 2 6 4 5 4 2 6 4 5 2 3 3 2 2 4 4 4 5 8 10 7 11 14 6 8 16 18 17 18 19 21 21 22 22 20 19 18 16 13 10 10 9 9 10 11 15 22 25 26 28 28 30 30 29 30 32 31 31 34 38 42 43 40 37 36 35 33 33 34 35 38 41 40 37 37 38 39 39 40 41 42 44 45
2 1 7 6 5 6 3 1 1 4 3 3 3 3 3 2 2 5 4 3 2 5 7 6 10 13 5 7 13 16 17 20 22 22 19 19 21 21 19 17 15 12 11 11 11 10 10 11 15 23 26 27 27 28 29 30 29 29 30 30 30 31 34 38 42 41 39 36 34 32 31 33 34 36 39 40 39 38 38 38 37 38 39 41 44 46
1 1 5 10 9 5 3 4 3 0 2 2 2 3 3 2 3 5 6 4 1 4 6 6 12 14 4 3 10 13 17 20 20 20 18 19 21 21 20 19 16 13 11 12 12 11 10 10 14 21 26 27 26 25 26 28 28 27 28 30 29 29 31 34 37 38 40 39 33 31 32 32 33 33 36 38 39 38 36 37 39 39 39 40 43 46
2 2 2 8 7 5 9 8 1 5 5 4 3 1 1 2 2 3 6 7 6 7 7 6 13 13 2 2 9 13 16 18 18 20 19 17 18 20 21 19 16 14 13 13 14 12 9 9 14 20 24 26 25 23 23 25 25 26 27 28 28 28 30 32 34 35 36 38 37 32 31 32 31 30 31 36 40 41 38 36 38 39 40 41 43 45
1 2 1 6 7 4 5 2 5 6 5 5 1 1 1 4 5 5 7 7 6 7 8 7 12 12 4 4 11 14 15 17 18 20 20 18 16 17 19 19 17 16 15 14 14 12 9 10 14 18 18 21 23 23 22 23 24 25 26 27 27 27 29 31 33 34 32 34 37 37 32 31 32 30 29 31 34 40 42 39 37 39 40 39 40 43
1 0 2 4 8 6 4 3 0 1 3 3 3 5 6 10 10 7 6 5 4 8 12 10 10 12 10 9 13 15 17 19 19 19 19 18 15 14 15 17 19 18 17 16 16 13 12 12 15 16 15 18 22 23 22 22 23 24 26 27 27 27 29 30 31 31 31 31 34 36 36 31 31 31 30 31 30 32 39 41 39 39 40 40 40 41
1 1 2 1 5 6 6 6 6 6 6 4 6 11 14 15 13 9 6 5 6 10 13 10 10 16 15 13 17 19 19 21 21 19 18 17 16 15 15 16 18 18 17 18 17 13 12 14 18 20 17 18 22 22 22 23 23 24 26 28 28 27 28 30 31 30 30 30 32 33 36 35 29 30 32 32 33 31 32 37 39 39 40 41 41 43
2 1 2 5 7 6 7 9 9 8 7 7 9 14 17 16 13 8 5 6 9 11 12 11 14 20 19 18 21 22 21 21 19 18 18 17 18 18 18 17 17 17 16 17 16 14 15 18 22 23 19 19 22 23 22 23 24 25 26 28 28 27 27 29 30 30 29 29 31 31 32 35 32 29 33 33 34 34 33 34 37 38 40 41 40 41
3 1 4 9 11 9 8 11 13 10 8 7 10 15 19 17 14 10 8 11 12 10 12 14 17 20 20 20 23 22 20 19 16 16 17 18 20 20 19 20 20 19 18 16 15 17 20 21 22 22 20 19 20 22 23 24 27 28 28 28 29 29 27 28 29 29 29 29 30 31 31 33 36 33 33 35 34 36 36 34 36 38 39 40 40 40
3 3 6 8 10 9 7 10 12 10 8 7 11 17 18 17 15 13 13 15 11 9 16 19 20 20 19 20 22 22 21 20 17 17 18 18 21 21 21 23 23 21 20 19 19 21 21 21 21 21 20 18 18 20 22 23 26 28 28 28 30 31 30 29 27 27 28 29 30 31 33 34 36 35 32 34 34 35 37 37 37 38 39 41 42 43
3 2 4 5 8 8 7 9 10 9 8 8 12 18 17 16 16 14 14 15 12 14 22 21 20 20 18 17 20 21 22 22 18 17 19 20 21 22 23 24 24 23 23 22 22 22 21 21 21 20 20 18 16 17 19 23 26 26 26 28 30 32 33 29 26 26 27 29 31 33 34 34 35 36 33 32 34 35 37 39 38 38 40 41 43 43
1 1 2 2 5 8 7 7 9 8 7 9 15 19 17 15 14 12 12 12 11 17 23 21 17 17 14 15 19 20 23 25 21 19 21 20 20 23 24 25 26 26 26 26 24 23 23 22 21 20 20 19 18 18 21 24 24 24 25 28 30 35 36 30 24 25 27 28 32 34 34 34 33 35 34 31 34 35 37 39 38 38 39 40 40 40
1 1 1 2 3 7 7 7 11 11 7 11 15 14 11 10 10 11 13 11 11 18 23 18 13 13 13 16 19 21 26 30 25 20 19 19 21 25 26 26 28 28 27 26 24 22 22 21 19 18 18 16 17 20 22 23 24 24 24 27 34 40 39 30 24 26 29 30 32 34 34 33 32 33 33 31 33 34 36 38 38 38 37 37 39 38
2 2 0 1 0 7 11 9 10 11 8 8 7 3 4 10 13 15 15 12 13 17 16 12 11 14 17 19 21 21 26 31 27 18 17 21 24 27 28 29 29 28 25 24 24 23 22 21 19 18 18 18 20 26 27 26 23 23 28 38 47 46 36 27 26 28 31 31 32 32 33 32 30 31 32 31 33 34 33 35 36 38 38 37 38 39
4 4 2 1 1 7 12 8 7 8 6 5 3 2 8 14 16 17 17 15 14 14 13 13 16 20 21 21 21 21 23 28 29 21 17 22 24 25 29 28 24 24 23 23 25 26 25 24 23 23 26 28 31 34 34 32 34 41 49 52 48 37 28 27 30 32 33 32 31 31 32 30 28 29 30 30 33 33 32 33 35 37 38 37 36 38
3 4 2 1 2 4 7 6 5 5 5 4 8 11 12 15 15 16 17 16 14 15 16 17 20 22 23 21 19 20 22 29 37 31 22 22 25 21 20 23 26 28 27 25 27 29 28 27 25 24 29 34 37 39 40 41 46 50 47 40 33 28 30 34 35 34 32 30 29 30 30 28 26 28 28 28 31 31 32 34 34 35 35 35 36 38
4 3 2 2 1 2 3 2 2 6 7 9 13 13 10 10 11 12 14 14 14 16 17 18 20 21 22 22 20 20 22 26 34 33 20 17 21 19 19 22 27 29 27 26 27 29 29 29 28 28 31 36 38 39 39 41 41 38 37 38 38 39 39 37 33 30 27 27 28 30 29 27 25 26 26 25 29 30 31 34 34 34 34 34 35 36
6 3 1 1 2 2 2 4 5 8 10 9 9 8 5 6 8 8 10 14 16 15 15 17 20 22 23 23 21 23 23 20 23 26 20 17 18 19 21 24 24 25 26 26 29 34 35 35 36 36 37 39 39 37 37 40 41 40 42 42 38 35 34 31 26 24 25 27 28 28 28 28 25 25 26 23 26 28 31 34 34 34 34 32 32 33
6 5 3 2 2 1 1 5 5 5 6 6 7 8 7 8 8 7 7 12 13 12 13 17 21 22 22 22 23 24 22 17 16 20 22 25 24 22 25 28 25 23 24 26 32 38 39 38 37 38 39 38 37 37 38 40 40 37 34 31 29 29 28 23 20 23 27 28 27 27 28 28 25 25 25 22 26 28 30 32 33 34 35 34 33 34
4 4 2 2 3 0 1 4 5 4 5 6 9 12 10 8 9 7 7 10 10 12 17 20 22 21 19 20 22 20 15 12 13 17 23 32 35 32 30 31 30 28 30 32 34 36 40 43 41 39 39 34 31 34 37 37 35 30 26 27 29 28 21 17 20 26 28 26 26 28 29 28 26 24 24 23 26 28 30 31 32 33 35 36 35 35
2 1 1 2 5 4 3 4 4 4 5 6 10 12 9 7 7 8 9 9 11 16 19 19 20 20 18 18 19 16 12 11 15 22 29 35 38 35 30 29 31 32 34 38 40 40 42 43 38 34 33 32 32 35 35 33 31 26 23 25 25 21 20 24 29 30 27 26 27 29 29 28 26 24 23 25 26 28 29 31 31 32 33 34 34 34
2 2 3 4 6 6 5 5 4 5 7 9 11 11 7 3 4 8 9 11 14 17 17 17 18 18 18 18 16 14 15 16 19 27 33 34 35 35 32 31 34 36 35 39 43 44 41 37 34 32 32 34 36 35 33 31 25 22 24 24 20 20 26 32 33 29 26 27 29 30 29 28 27 24 23 26 27 28 28 30 31 32 33 32 31 31
1 2 2 4 4 4 5 4 4 6 6 5 6 7 5 2 4 8 10 11 15 16 16 17 16 15 17 21 19 18 22 24 24 28 30 29 30 34 34 34 35 37 38 40 43 45 40 33 31 33 35 36 35 32 32 29 22 20 23 21 19 24 29 29 27 26 26 28 30 30 29 28 27 25 24 25 27 28 27 29 30 32 33 32 30 30
3 2 2 3 3 1 3 3 3 6 3 2 3 6 6 5 6 9 10 11 13 14 14 14 14 14 17 21 23 25 29 31 30 29 29 28 27 29 32 32 31 33 36 37 39 43 41 31 27 30 34 35 33 31 31 27 21 20 20 20 25 31 31 29 28 29 30 31 30 30 29 28 27 26 24 24 27 28 27 27 29 30 31 31 30 28
3 3 2 3 1 1 3 4 4 5 5 6 7 6 5 6 7 6 7 8 9 11 10 9 13 16 17 19 24 27 29 31 32 32 31 30 29 29 29 31 30 30 33 35 39 45 40 29 25 30 35 36 34 32 31 27 21 19 20 24 30 32 29 29 30 29 29 29 28 28 28 27 26 25 25 25 26 28 27 27 27 27 28 29 28 25
4 5 3 4 4 4 5 6 7 8 9 8 6 5 6 7 5 7 7 7 7 8 8 9 14 19 19 21 25 25 24 27 29 30 31 30 29 29 29 29 30 31 32 35 41 46 41 30 25 28 32 35 35 31 30 27 20 17 22 29 31 29 27 27 26 24 24 26 26 26 26 25 25 25 25 26 26 27 26 26 26 25 26 27 27 24
4 4 3 4 5 6 7 9 10 10 9 8 7 6 4 3 5 7 7 7 7 7 8 9 13 18 20 22 23 23 24 27 28 29 29 28 28 28 28 28 29 31 33 34 37 43 43 35 28 23 23 30 33 30 29 28 22 19 25 31 31 27 26 25 23 22 23 24 25 26 25 23 22 23 25 26 28 28 27 27 26 24 24 25 25 23
3 4 4 6 6 5 6 8 8 8 9 10 10 8 3 4 6 6 5 5 7 9 11 13 15 16 18 19 21 23 26 28 28 28 26 25 26 27 27 27 27 29 32 34 36 40 40 33 26 22 21 26 32 33 31 30 26 24 27 29 28 26 25 23 22 21 22 22 24 25 23 21 20 21 22 24 26 27 28 29 28 25 23 23 23 21
2 2 3 7 7 6 9 11 11 10 10 9 6 3 4 6 8 7 5 5 8 9 10 13 16 17 17 18 20 22 24 25 25 26 25 23 23 24 24 25 27 30 35 39 39 38 34 28 26 26 24 25 31 35 33 31 29 28 27 26 26 25 23 21 20 20 21 22 22 22 21 20 20 20 20 22 25 25 26 27 28 26 25 26 25 21
2 1 2 4 5 8 11 11 7 7 9 10 5 3 4 3 5 7 7 7 9 10 11 12 15 17 19 21 20 21 23 22 20 24 26 23 22 23 23 25 28 32 35 38 39 37 34 31 30 29 27 28 32 35 34 32 32 31 29 28 27 25 23 21 20 20 21 21 21 21 21 20 20 20 20 21 23 25 27 29 30 28 26 29 31 30
4 6 5 2 4 8 9 6 1 3 9 12 7 5 5 4 5 7 9 9 10 12 13 14 15 16 18 21 21 20 21 21 21 22 22 20 21 24 26 27 29 31 34 38 38 37 37 37 36 33 31 32 34 35 34 33 33 32 30 29 28 26 23 22 20 18 18 19 19 19 19 18 18 20 20 20 20 21 24 28 32 33 29 28 31 34
6 8 6 4 6 10 10 5 3 2 6 8 5 5 5 5 6 7 8 9 10 12 13 15 16 15 15 18 22 21 19 20 22 23 21 20 24 28 30 30 28 28 32 37 36 36 38 40 38 35 33 33 35 35 34 34 34 33 32 31 30 26 23 21 17 14 14 15 15 16 17 16 16 17 19 19 19 19 17 18 24 31 33 32 32 34
Wind_Direction
61 22 346 274 279 282 287 260 213 234 235 280 298 281 282 292 290 292 288 286 350 330 305 320 305 300 300 299 304 306 305 304 304 307 313 334 344 337 351 1 13 17 5 0 9 11 7 8 8 4 358 347 334 324 304 284 270 251 240 235 231 226 219 214 210 205 200 196 194 192 192 196 198 197 196 200 201 200 202 203 202 202 201 202 203 204
48 19 283 245 238 255 275 141 145 157 296 290 295 296 304 281 277 290 292 294 354 354 303 337 318 301 297 297 300 302 300 300 305 309 318 346 358 7 22 17 19 14 359 6 6 3 359 360 2 1 0 352 339 333 321 303 288 267 247 239 235 232 225 217 214 210 205 200 197 197 197 198 198 197 195 196 199 201 202 203 203 204 203 202 203 204
6 307 259 248 236 258 302 104 126 141 169 273 284 303 306 289 284 293 293 300 335 86 311 334 319 297 293 294 296 294 290 294 302 308 330 20 27 28 31 16 13 8 2 5 358 356 354 353 356 356 357 354 345 336 330 319 305 288 263 247 240 236 232 224 217 213 211 207 202 201 200 199 198 198 196 196 199 201 201 202 203 204 203 202 202 203
321 275 257 260 286 293 317 18 79 82 93 224 260 296 292 298 312 298 307 319 314 290 271 291 288 285 288 290 293 289 285 294 304 312 355 58 58 41 31 14 10 2 356 358 355 354 351 351 354 353 352 351 347 340 335 329 318 305 287 266 250 240 236 232 223 216 214 212 209 204 201 201 200 199 198 196 198 200 199 201 203 203 203 203 203 203
271 271 279 40 30 74 283 316 3 7 332 238 227 247 269 293 293 277 306 328 316 302 271 184 272 276 284 288 291 292 298 309 308 315 354 56 58 35 28 12 3 356 351 355 353 352 352 352 352 349 348 348 345 341 336 334 327 317 305 289 267 249 243 238 230 222 216 213 213 208 202 199 199 197 194 190 192 195 197 199 202 203 204 204 204 203
269 270 353 39 343 38 297 300 311 284 319 303 241 229 245 280 289 288 311 340 327 305 330 74 315 287 285 288 293 304 304 303 305 322 11 48 31 22 22 4 354 353 351 354 353 353 354 352 351 349 348 346 343 339 336 334 331 324 315 303 284 261 250 245 237 227 218 214 213 207 196 190 189 190 189 188 189 192 195 198 200 202 203 203 203 201
281 298 31 4 287 318 339 298 255 175 4 316 257 210 230 270 288 290 306 331 322 291 306 34 305 285 287 285 292 302 295 296 309 352 35 36 19 19 9 352 353 356 355 357 358 359 357 352 350 348 346 344 339 335 335 333 332 329 323 312 297 275 257 250 244 233 220 213 212 211 202 191 189 192 192 192 193 194 194 196 197 198 200 201 201 200
295 324 1 359 303 337 328 301 258 153 97 273 255 341 319 306 291 285 293 290 273 284 296 303 229 267 281 280 293 295 285 299 324 19 28 11 8 7 357 0 6 8 8 5 4 2 357 350 347 345 343 343 339 335 333 331 331 330 327 320 307 288 267 254 248 239 226 215 211 211 211 201 195 197 198 194 195 196 194 193 194 195 197 199 200 199
267 306 313 312 314 312 278 276 249 110 94 266 290 333 311 292 275 279 287 274 283 294 293 290 242 266 274 282 333 331 296 314 353 22 17 2 358 355 356 9 15 17 16 11 5 359 354 347 344 343 343 343 343 340 336 333 332 329 327 325 315 299 279 261 251 244 234 224 215 210 210 210 203 201 200 197 195 195 194 191 192 193 195 197 198 199
245 239 245 281 293 250 248 263 170 103 38 293 315 328 302 289 278 277 274 273 307 295 280 287 278 259 276 290 346 346 309 339 18 10 7 357 351 351 1 13 17 16 13 7 1 354 351 346 341 343 345 345 346 345 342 338 335 330 327 326 321 308 291 272 255 247 240 230 222 214 209 208 206 202 200 198 196 194 193 192 191 192 193 195 196 198
283 281 237 61 265 208 201 300 141 121 22 335 347 339 322 321 315 301 287 270 335 278 274 280 272 292 292 294 1 344 324 19 39 358 360 355 351 356 7 15 15 11 6 360 355 348 346 344 341 343 346 346 346 346 344 341 337 334 331 329 324 313 300 282 260 249 244 235 225 221 217 209 201 198 196 196 196 193 191 191 190 190 192 194 195 196
316 323 1 131 234 97 73 18 86 114 44 20 3 343 332 324 322 316 328 43 252 275 280 294 352 327 290 290 347 333 342 37 31 3 357 349 352 1 6 14 12 6 1 353 349 344 343 342 341 345 347 345 345 344 342 341 339 337 336 333 327 317 306 290 268 251 245 241 230 221 220 217 206 199 197 194 194 193 189 190 191 190 191 192 194 195
316 289 293 194 68 33 39 12 1 43 46 23 327 346 358 332 323 314 325 328 257 270 281 303 344 309 275 290 336 339 30 39 4 354 349 346 359 7 6 17 11 360 353 347 344 341 343 342 337 341 344 342 342 341 339 338 339 338 337 336 331 321 309 296 277 257 246 244 239 224 216 217 212 204 202 198 194 193 191 190 190 190 190 189 191 194
325 296 339 339 336 36 56 47 355 339 2 351 310 44 17 349 331 311 310 301 279 276 286 302 328 292 274 301 41 44 34 6 348 349 345 346 355 358 358 8 359 351 345 339 337 336 341 339 331 332 338 339 338 338 336 335 337 338 337 338 335 326 314 301 285 265 250 244 243 234 218 213 213 210 207 203 198 195 194 192 192 193 191 189 191 193
329 305 320 338 347 47 53 74 134 302 333 332 137 93 68 80 15 296 294 292 293 292 293 303 308 280 293 7 62 26 353 347 350 347 343 346 350 349 348 346 344 343 342 338 336 338 341 338 331 331 335 336 334 334 333 333 335 338 338 338 337 331 319 306 292 272 254 245 244 241 228 214 211 212 212 209 203 198 196 194 193 194 194 192 192 193
292 264 266 338 54 81 67 84 183 313 331 310 86 63 90 134 184 258 270 268 279 287 287 298 270 267 303 324 353 5 351 350 350 342 340 344 348 346 341 340 341 338 338 341 342 341 340 338 335 331 331 331 330 330 330 331 333 335 337 338 337 335 327 312 297 280 261 251 246 242 235 222 212 211 211 211 208 200 197 197 195 194 195 195 193 193
340 273 288 342 30 98 101 322 309 300 308 309 4 3 244 217 184 227 274 263 270 285 282 302 283 281 305 311 344 5 352 347 341 331 330 334 338 337 330 332 333 328 330 334 336 335 332 332 330 326 324 325 327 327 326 327 330 331 334 337 338 338 336 324 306 288 271 259 253 246 238 228 218 212 208 208 210 206 199 198 197 195 194 195 195 193
270 286 271 202 160 152 258 346 21 88 76 40 332 304 280 273 175 183 289 271 271 278 276 304 295 294 304 301 1 4 344 332 325 320 324 330 332 329 324 325 322 317 319 320 322 322 321 325 324 321 319 318 320 322 321 323 326 329 334 337 338 338 338 333 319 300 282 269 261 252 243 232 223 217 210 205 207 207 203 200 199 196 194 194 195 194
4 306 291 147 122 305 315 35 48 1 62 83 311 319 343 359 357 332 315 310 314 294 285 308 299 294 302 323 348 346 327 318 321 324 328 327 326 323 319 319 314 310 310 309 310 311 314 320 318 317 315 313 315 317 318 321 324 329 335 337 338 337 338 337 332 317 296 278 267 258 250 241 230 221 215 209 205 202 200 200 199 197 195 193 194 194
46 306 283 121 87 358 343 53 6 309 25 84 46 358 15 32 338 308 284 288 310 288 284 310 296 286 314 349 332 325 316 318 323 323 323 320 317 317 315 312 306 303 300 298 300 299 305 311 312 314 313 310 311 312 315 320 324 329 334 336 336 336 337 339 338 331 311 287 271 262 255 247 237 225 216 214 210 204 200 198 197 197 196 194 193 194
54 239 269 300 1 4 358 119 273 319 355 37 35 24 10 11 301 284 267 242 236 269 290 316 282 275 326 354 318 313 316 318 318 316 315 314 314 313 310 307 300 294 292 292 293 293 298 305 309 313 314 311 307 307 312 318 322 326 330 333 334 334 335 337 337 336 326 303 279 264 259 253 243 230 217 212 210 208 205 200 198 198 196 194 192 191
97 173 271 295 320 345 308 258 247 232 159 155 74 31 347 338 326 310 296 287 294 285 296 302 280 283 325 337 304 313 313 311 311 309 309 311 312 311 308 305 298 290 289 289 289 289 293 301 309 313 316 314 305 301 306 312 317 321 324 327 329 330 331 333 334 334 331 321 300 275 264 259 251 238 222 211 207 206 205 201 199 199 197 195 194 192
141 109 276 285 292 288 287 292 182 150 143 124 98 79 261 290 323 295 286 300 309 292 287 275 276 286 311 279 299 308 304 304 307 306 308 309 308 309 308 304 298 291 288 286 286 287 287 296 308 313 315 313 305 297 297 304 310 314 317 320 323 326 327 327 330 331 330 329 321 301 279 264 256 246 229 214 207 204 203 201 199 198 198 196 195 193
102 79 354 292 292 275 281 328 124 141 98 74 17 290 270 286 287 263 269 290 293 291 295 275 271 284 303 305 302 303 302 305 307 306 308 308 307 308 308 306 303 297 293 291 287 285 288 297 307 314 315 311 305 296 292 297 304 309 313 316 317 320 322 323 326 327 327 328 327 322 304 275 254 245 234 220 210 203 201 201 199 198 199 198 194 192
255 29 43 330 313 319 334 2 169 273 34 59 303 314 305 291 295 289 281 288 283 287 291 285 280 288 298 305 302 302 306 305 303 305 307 306 306 306 307 306 304 301 299 297 290 285 290 298 308 313 311 305 300 292 289 293 299 306 310 312 313 314 316 320 322 323 323 324 325 327 322 296 258 238 232 226 217 206 199 197 197 198 198 198 197 194
184 216 100 56 296 305 308 300 294 312 338 349 331 323 307 301 308 309 304 306 294 287 286 282 282 287 294 307 303 303 308 305 304 308 306 304 304 304 305 303 300 300 300 298 292 285 286 297 306 308 304 300 296 288 286 290 296 304 308 308 308 308 311 315 318 319 319 321 321 323 325 315 279 243 231 226 219 212 202 195 195 196 196 198 198 195
100 196 180 203 232 246 260 272 284 301 310 316 320 308 297 297 304 306 307 294 285 288 285 276 282 292 302 311 306 305 307 304 304 310 307 305 306 305 303 298 294 294 294 295 290 280 283 294 301 302 297 294 291 283 280 286 295 303 306 306 306 305 306 311 314 316 316 318 318 315 318 320 305 267 238 225 217 213 207 199 196 196 196 198 198 195
96 238 224 223 237 245 254 271 281 290 293 300 304 292 287 292 300 300 289 280 284 292 289 287 292 298 302 306 304 304 304 300 302 307 304 302 303 302 299 295 291 288 286 286 281 277 283 292 295 295 292 288 285 281 280 284 293 301 303 304 307 306 304 306 309 312 314 315 314 311 309 313 314 292 252 228 217 211 206 201 199 198 198 198 198 198
115 238 226 228 250 249 241 259 272 281 288 291 282 276 280 289 293 290 280 279 285 283 282 293 300 297 297 301 301 301 301 299 299 301 298 297 297 296 294 293 291 289 287 284 280 281 284 287 289 289 286 283 280 278 279 283 290 297 300 303 307 307 303 303 305 307 311 312 308 306 305 306 313 306 271 235 218 210 205 202 200 199 199 199 200 201
115 245 218 228 268 265 241 249 260 268 277 280 274 275 282 286 283 281 278 280 285 278 279 291 299 295 295 298 298 300 299 295 297 298 294 292 293 292 292 292 291 289 288 284 282 283 282 283 284 283 280 278 275 276 280 284 287 290 295 301 305 307 303 299 299 303 306 308 306 302 301 302 308 310 288 245 219 210 205 201 199 198 198 199 201 201
157 246 214 215 287 285 269 260 266 269 266 269 273 275 280 282 280 282 286 293 297 286 287 298 303 294 295 297 297 301 298 295 297 299 296 294 293 292 291 291 291 291 290 287 284 282 282 282 281 278 276 273 274 277 279 280 282 285 292 298 303 305 302 293 292 300 301 301 302 300 297 298 303 308 294 254 221 208 204 201 198 196 195 197 199 200
207 247 335 37 328 287 289 300 297 295 288 273 270 267 269 281 291 292 293 300 298 291 296 307 305 295 300 302 300 300 298 296 298 300 301 301 298 296 294 291 290 288 286 286 286 287 289 290 287 285 285 282 283 286 284 283 283 285 291 299 303 301 295 286 287 297 297 296 298 296 292 294 300 305 294 259 222 207 203 199 197 196 195 195 195 196
197 190 284 66 18 284 291 306 308 312 316 284 258 235 284 297 300 297 294 294 292 293 302 308 299 296 302 303 301 301 300 300 303 311 315 310 306 301 295 290 288 290 294 300 306 309 309 309 308 305 301 299 298 295 291 288 288 293 299 300 298 291 284 283 291 295 293 292 293 290 287 289 296 302 292 259 224 208 201 196 194 196 196 196 194 193
196 173 190 179 158 284 291 311 333 321 307 272 258 329 316 301 296 293 292 292 288 287 290 292 295 299 301 301 302 305 307 306 306 313 320 310 301 294 290 292 300 308 314 318 317 315 312 307 303 299 295 293 293 292 291 292 294 296 294 290 286 280 280 290 295 292 288 287 286 284 282 285 294 301 290 257 224 207 198 194 194 195 196 195 193 191
189 172 173 187 171 268 293 335 350 290 256 276 304 307 299 290 285 284 285 287 287 288 292 294 296 298 300 303 306 310 316 314 308 310 317 305 293 293 304 315 323 323 319 318 316 310 306 303 298 296 295 294 291 289 288 289 288 286 283 281 283 287 293 294 289 283 280 280 281 280 278 281 292 301 290 254 222 204 196 194 194 194 193 191 190 191
183 181 177 182 202 277 304 329 260 265 284 302 299 295 291 287 290 293 294 297 301 301 299 297 297 300 304 309 315 320 323 318 307 304 314 315 308 320 332 325 320 316 311 310 310 306 305 307 303 298 297 295 292 289 287 286 285 285 287 290 291 289 287 283 277 274 276 278 278 275 274 279 290 299 289 251 217 202 196 194 195 194 191 189 189 190
172 163 145 205 236 225 233 241 254 289 303 295 278 280 287 288 298 309 306 304 304 300 298 301 306 312 315 317 323 325 321 315 302 300 317 339 334 330 324 312 309 308 304 304 304 303 304 307 306 304 304 302 298 296 293 290 289 287 285 282 279 277 277 273 269 273 279 277 272 269 271 276 284 295 288 251 215 202 197 194 195 194 190 187 186 189
184 189 170 192 240 183 263 280 288 298 288 272 275 285 286 289 303 322 309 298 300 302 310 317 318 321 324 323 325 326 323 318 305 302 317 333 334 328 320 314 310 308 305 306 306 304 304 303 303 305 305 303 301 299 297 295 291 285 279 276 275 274 272 266 269 280 278 269 264 266 269 271 276 287 285 252 218 205 199 195 194 192 190 188 187 188
211 227 169 186 251 129 112 269 272 266 263 271 285 289 296 309 320 329 308 296 312 329 330 329 325 327 331 327 323 324 323 315 303 302 314 323 324 323 321 317 314 313 310 308 304 302 302 303 302 303 302 299 298 300 300 298 295 290 286 284 280 272 263 263 274 278 270 261 263 267 267 265 268 278 278 256 227 210 201 196 194 193 191 191 190 190
255 257 127 199 239 218 191 237 256 250 250 256 267 276 291 313 325 326 310 307 333 340 335 331 330 331 332 326 321 319 312 303 300 303 310 315 315 315 316 315 313 313 311 308 304 300 300 302 302 301 300 299 298 299 300 297 294 292 290 286 281 272 270 274 275 270 263 263 269 269 264 259 259 265 270 258 235 217 206 199 195 193 192 192 192 191
274 232 173 190 225 230 225 242 265 263 253 252 260 273 287 306 320 317 309 317 333 335 333 333 331 331 327 320 317 311 299 295 297 299 304 309 310 311 313 312 309 307 305 303 303 303 302 301 300 298 296 296 296 297 297 295 292 290 289 286 280 272 268 266 263 262 263 268 272 269 261 254 251 254 261 256 240 223 211 202 196 193 192 193 194 192
240 244 211 184 201 227 219 219 272 281 258 225 248 282 307 337 317 309 309 323 331 331 334 334 328 327 324 314 308 304 298 298 302 303 305 309 310 310 312 313 311 310 308 306 307 309 307 301 300 300 297 296 296 295 294 292 288 285 285 282 278 277 273 267 262 264 269 272 271 267 258 252 249 249 252 250 237 224 215 207 200 195 192 192 193 193
186 183 253 208 184 227 239 230 272 272 258 63 1 321 329 332 311 310 318 328 333 333 335 332 322 323 321 310 306 308 307 306 309 311 309 309 309 309 310 312 311 312 315 314 313 315 314 307 302 301 298 297 296 294 293 291 285 283 283 277 274 276 276 275 272 270 270 270 267 263 255 250 248 247 246 243 232 221 216 209 202 196 193 192 192 192
200 170 221 247 227 223 225 220 229 243 273 337 337 312 304 306 310 334 340 330 331 337 338 330 318 315 312 306 306 308 308 309 311 314 314 314 315 314 314 315 315 313 316 317 316 317 317 309 300 300 299 298 294 291 291 289 282 281 278 272 272 272 270 269 268 264 263 263 261 258 253 248 246 245 243 239 228 218 213 208 201 196 194 192 191 191
219 186 200 245 247 229 223 238 258 271 288 307 307 290 295 309 342 23 5 331 330 344 341 325 315 312 309 309 308 307 308 310 312 315 316 315 317 318 317 317 318 318 319 320 322 323 322 313 301 298 298 296 292 289 290 290 283 278 275 272 272 270 266 265 263 259 258 258 256 254 251 247 244 241 239 234 224 215 210 205 199 196 193 192 192 192
229 179 185 243 262 262 256 254 260 274 289 296 298 298 301 335 21 23 359 340 344 343 330 315 308 308 310 310 310 307 309 312 313 314 315 316 317 319 319 318 320 323 324 324 327 329 328 320 308 299 295 298 299 298 298 297 289 278 277 278 277 274 269 267 264 260 257 255 254 253 249 243 239 236 235 231 221 214 210 204 199 196 194 192 193 194
247 168 196 246 271 284 271 260 265 281 293 297 300 306 337 27 18 15 10 352 342 332 321 311 305 306 307 308 308 307 308 312 314 314 317 321 321 320 321 322 324 327 328 328 328 330 330 327 321 317 314 313 314 314 314 312 305 292 287 287 287 285 280 271 264 260 256 254 254 251 244 236 233 232 230 225 218 213 209 204 200 197 196 194 193 193
255 126 196 239 252 258 262 271 286 294 291 287 287 322 26 3 349 356 10 350 333 323 315 312 311 312 311 309 308 308 308 311 314 316 319 323 324 323 324 325 327 328 328 328 329 330 331 331 329 327 326 324 325 325 325 323 321 318 315 312 310 306 297 282 269 263 259 255 252 250 243 237 232 229 225 220 215 211 207 202 199 199 200 198 194 193
204 202 208 229 254 267 269 277 298 312 299 295 305 65 64 10 343 346 346 340 332 324 318 317 316 313 310 310 311 312 311 312 316 321 323 325 327 327 327 328 329 330 329 330 330 331 332 331 329 329 328 327 327 328 327 326 327 327 327 324 321 318 310 296 282 271 265 260 254 250 247 242 235 228 222 217 212 210 209 205 200 199 202 202 200 199
203 233 231 227 262 269 269 269 309 324 295 296 319 27 38 24 12 351 337 336 332 324 322 323 318 309 306 309 313 316 315 316 321 325 326 328 329 328 328 330 332 331 332 333 333 332 332 332 331 329 327 327 328 328 326 324 324 322 322 323 320 314 307 300 292 281 269 263 256 249 245 241 234 226 220 214 209 208 210 209 204 202 201 202 203 204
208 221 216 208 237 259 267 255 158 167 264 278 319 16 26 20 10 350 336 331 324 319 322 322 318 315 312 311 315 318 315 315 321 326 328 329 329 328 330 334 336 335 336 337 336 334 332 332 332 331 331 329 329 327 323 322 322 320 319 318 313 306 299 296 293 284 268 260 255 248 242 235 227 220 215 211 205 200 200 204 205 205 205 204 203 205